Beaver Bay, MN

2:04 PM CDT on September 29, 2016 (GMT -0500)
Silver Bay Municipal

Weather History for KBFW - August, 2014

Change the Weather History Date:

Saturday, August 9, 2014

  Actual Average Record
Temperature  
Mean Temperature 64 °F -  
Max Temperature 78 °F 71 °F 93 °F (2010)
Min Temperature 51 °F 46 °F 46 °F (2013)
Growing Degree Days 14 (Base 50)    
Moisture  
Dew Point 60 °F    
Average Humidity 83    
Maximum Humidity 100    
Minimum Humidity 51    
Precipitation  
Precipitation 0.00 in - - ()
Sea Level Pressure  
Sea Level Pressure 30.12 in    
Wind  
Wind Speed 1 mph (SE)    
Max Wind Speed 9 mph    
Max Gust Speed -    
Visibility 9 miles    
Events      
Averages and records for this station are not official NWS values.
T = Trace of Precipitation, MM = Missing Value Source: NWS Daily Summary

Daily Weather History Graph

Daily Weather History Graph

Search for Another Location

Airport or City:

Trip Planner

Search our weather history database for the weather conditions in past years. The results will help you decide how hot, cold, wet, or windy it might be!

Date:

Astronomy

Aug. 09, 2014 Rise Set
Actual Time 5:54 AM CDT 8:26 PM CDT
Civil Twilight 5:20 AM CDT 9:01 PM CDT
Nautical Twilight 4:36 AM CDT 9:44 PM CDT
Astronomical Twilight 3:46 AM CDT 10:34 PM CDT
Moon 7:26 PM CDT (8/9) 4:35 AM CDT (8/9)
Length of Visible Light 15h 41m
Length of Day
14h 32m
Waxing Gibbous, 98% of the Moon is Illuminated
Aug 9
Waxing Gibbous
Aug 10
Full
Aug 17
Last Quarter
Aug 25
New
Sep 2
First Quarter

Hourly Weather History & Observations

Time (CDT) Temp. Dew Point Humidity Pressure Visibility Wind Dir Wind Speed Gust Speed Precip Events Conditions
12:14 AM 60.8 °F 60.8 °F 100% 30.10 in 10.0 mi Calm Calm - N/A   Clear
12:34 AM 62.6 °F 62.6 °F 100% 30.10 in 7.0 mi Calm Calm - N/A   Clear
12:54 AM 60.8 °F 60.8 °F 100% 30.11 in 10.0 mi North 3.5 mph - N/A   Clear
1:14 AM 60.8 °F 60.8 °F 100% 30.10 in 10.0 mi Calm Calm - N/A   Clear
1:34 AM 60.8 °F 60.8 °F 100% 30.10 in 7.0 mi Calm Calm - N/A   Clear
1:54 AM 59.0 °F 59.0 °F 100% 30.10 in 7.0 mi Calm Calm - N/A   Clear
2:14 AM 60.8 °F 60.8 °F 100% 30.10 in 7.0 mi Calm Calm - N/A   Clear
2:34 AM 60.8 °F 60.8 °F 100% 30.10 in 10.0 mi Calm Calm - N/A   Clear
2:54 AM 60.8 °F 60.8 °F 100% 30.10 in 10.0 mi Calm Calm - N/A   Clear
3:14 AM 60.8 °F 60.8 °F 100% 30.11 in 7.0 mi Calm Calm - N/A   Clear
3:34 AM 59.0 °F 59.0 °F 100% 30.12 in 7.0 mi Calm Calm - N/A   Clear
3:54 AM 57.2 °F 57.2 °F 100% 30.12 in 7.0 mi Calm Calm - N/A   Clear
4:14 AM 57.2 °F 57.2 °F 100% 30.12 in 5.0 mi Calm Calm - N/A   Clear
4:34 AM 57.2 °F 57.2 °F 100% 30.12 in 5.0 mi Calm Calm - N/A   Clear
4:54 AM 55.4 °F 55.4 °F 100% 30.12 in 5.0 mi Calm Calm - N/A   Clear
5:14 AM 55.4 °F 55.4 °F 100% 30.12 in 4.0 mi Calm Calm - N/A   Clear
5:34 AM 53.6 °F 53.6 °F 100% 30.12 in 5.0 mi Calm Calm - N/A   Clear
5:54 AM 51.8 °F 51.8 °F 100% 30.13 in 5.0 mi Calm Calm - N/A   Clear
6:14 AM 53.6 °F 53.6 °F 100% 30.14 in 4.0 mi Calm Calm - N/A   Clear
6:34 AM 53.6 °F 53.6 °F 100% 30.14 in 5.0 mi Calm Calm - N/A   Clear
6:54 AM 53.6 °F 53.6 °F 100% 30.14 in 7.0 mi Calm Calm - N/A   Clear
7:14 AM 55.4 °F 55.4 °F 100% 30.14 in 7.0 mi Calm Calm - N/A   Clear
7:34 AM 57.2 °F 57.2 °F 100% 30.14 in 10.0 mi Calm Calm - N/A   Clear
7:54 AM 60.8 °F 60.8 °F 100% 30.15 in 10.0 mi Calm Calm - N/A   Clear
8:14 AM 64.4 °F 62.6 °F 94% 30.15 in 10.0 mi Calm Calm - N/A   Clear
8:34 AM 66.2 °F 64.4 °F 94% 30.15 in 10.0 mi Calm Calm - N/A   Clear
8:54 AM 66.2 °F 64.4 °F 94% 30.16 in 10.0 mi Calm Calm - N/A   Clear
9:14 AM 69.8 °F 64.4 °F 83% 30.15 in 10.0 mi Calm Calm - N/A   Clear
9:34 AM 71.6 °F 64.4 °F 78% 30.14 in 10.0 mi Calm Calm - N/A   Clear
9:54 AM 73.4 °F 62.6 °F 69% 30.15 in 10.0 mi Calm Calm - N/A   Clear
10:14 AM 73.4 °F 62.6 °F 69% 30.15 in 10.0 mi Calm Calm - N/A   Clear
10:34 AM 75.2 °F 60.8 °F 61% 30.14 in 10.0 mi SSW 3.5 mph - N/A   Clear
10:54 AM 77.0 °F 62.6 °F 61% 30.14 in 10.0 mi SE 5.8 mph - N/A   Clear
11:14 AM 77.0 °F 62.6 °F 61% 30.14 in 10.0 mi South 6.9 mph - N/A   Clear
11:34 AM 77.0 °F 59.0 °F 54% 30.14 in 10.0 mi SE 6.9 mph - N/A   Clear
12:14 PM 78.8 °F 60.8 °F 54% 30.14 in 10.0 mi SSE 5.8 mph - N/A   Clear
12:34 PM 77.0 °F 59.0 °F 54% 30.14 in 10.0 mi SE 4.6 mph - N/A   Clear
12:54 PM 78.8 °F 60.8 °F 54% 30.13 in 10.0 mi ESE 6.9 mph - N/A   Clear
1:14 PM 78.8 °F 59.0 °F 51% 30.13 in 10.0 mi ESE 4.6 mph - N/A   Clear
1:34 PM 78.8 °F 60.8 °F 54% 30.12 in 10.0 mi SSE 6.9 mph - N/A   Clear
1:54 PM 77.0 °F 60.8 °F 57% 30.12 in 10.0 mi SSE 9.2 mph - N/A   Clear
2:14 PM 78.8 °F 60.8 °F 54% 30.11 in 10.0 mi South 5.8 mph - N/A   Clear
2:34 PM 78.8 °F 60.8 °F 54% 30.11 in 10.0 mi East 9.2 mph - N/A   Clear
2:54 PM 77.0 °F 60.8 °F 57% 30.11 in 10.0 mi SE 8.1 mph - N/A   Clear
3:14 PM 77.0 °F 60.8 °F 57% 30.11 in 10.0 mi SE 5.8 mph - N/A   Clear
3:54 PM 77.0 °F 62.6 °F 61% 30.10 in 10.0 mi SSE 4.6 mph - N/A   Clear
4:14 PM 77.0 °F 62.6 °F 61% 30.11 in 10.0 mi ESE 5.8 mph - N/A   Clear
4:54 PM 75.2 °F 60.8 °F 61% 30.10 in 10.0 mi ESE 5.8 mph - N/A   Clear
5:14 PM 75.2 °F 62.6 °F 65% 30.10 in 10.0 mi SE 5.8 mph - N/A   Clear
5:34 PM 73.4 °F 60.8 °F 65% 30.10 in 10.0 mi East 4.6 mph - N/A   Clear
5:54 PM 73.4 °F 60.8 °F 65% 30.10 in 10.0 mi Calm Calm - N/A   Clear
6:14 PM 71.6 °F 59.0 °F 64% 30.10 in 10.0 mi East 3.5 mph - N/A   Clear
6:34 PM 69.8 °F 60.8 °F 73% 30.10 in 10.0 mi Calm Calm - N/A   Clear
6:54 PM 69.8 °F 60.8 °F 73% 30.10 in 10.0 mi Calm Calm - N/A   Clear
7:14 PM 69.8 °F 60.8 °F 73% 30.09 in 10.0 mi Calm Calm - N/A   Clear
7:34 PM 69.8 °F 60.8 °F 73% 30.09 in 10.0 mi Calm Calm - N/A   Clear
7:54 PM 68.0 °F 60.8 °F 78% 30.09 in 10.0 mi Calm Calm - N/A   Clear
8:14 PM 66.2 °F 60.8 °F 83% 30.09 in 10.0 mi Calm Calm - N/A   Clear
8:54 PM 64.4 °F 60.8 °F 88% 30.10 in 10.0 mi Calm Calm - N/A   Clear
9:14 PM 62.6 °F 60.8 °F 94% 30.10 in 10.0 mi Calm Calm - N/A   Clear
9:34 PM 60.8 °F 60.8 °F 100% 30.10 in 10.0 mi Calm Calm - N/A   Clear
9:54 PM 60.8 °F 60.8 °F 100% 30.10 in 10.0 mi Calm Calm - N/A   Clear
10:34 PM 57.2 °F 57.2 °F 100% 30.10 in 10.0 mi Calm Calm - N/A   Clear
10:54 PM 57.2 °F 57.2 °F 100% 30.10 in 10.0 mi Calm Calm - N/A   Clear
11:14 PM 57.2 °F 57.2 °F 100% 30.11 in 10.0 mi Calm Calm - N/A   Clear
11:34 PM 55.4 °F 55.4 °F 100% 30.11 in 7.0 mi Calm Calm - N/A   Clear
11:54 PM 55.4 °F 55.4 °F 100% 30.10 in 10.0 mi Calm Calm - N/A   Clear